Overview Statistics Trail Chart Weather Telemetry Raw packets
 

This is the latest recevied weather packets stored in our database for station/object N6GPM. If no packets are shown the sender has not sent any weather packets the latest 10 day(s).

<< 18 19 20 21 22 23 24 >>
Time Temp. Humidity Pressure Rain* Wind** Luminosity Snow
1788553274 27.78° C 39% 1017.2 hPa 0 mm - 973 W/m² -
1788552974 27.22° C 41% 1017.4 hPa 0 mm - 972 W/m² -
1788552669 27.78° C 40% 1017.4 hPa 0 mm - 978 W/m² -
1788552368 27.22° C 42% 1017.2 hPa 0 mm - 979 W/m² -
1788552063 26.67° C 42% 1017.4 hPa 0 mm - 981 W/m² -
1788551761 26.67° C 42% 1017 hPa 0 mm - 985 W/m² -
1788551455 26.67° C 43% 1017.4 hPa 0 mm - 989 W/m² -
1788551150 26.67° C 42% 1017 hPa 0 mm - 987 W/m² -
1788550845 25.56° C 45% 1017.4 hPa 0 mm - 989 W/m² -
1788550545 25.56° C 46% 1017.5 hPa 0 mm - 988 W/m² -
1788550242 26.11° C 45% 1017.6 hPa 0 mm - 986 W/m² -
1788549941 25.56° C 46% 1017.6 hPa 0 mm - 987 W/m² -
1788549637 26.11° C 47% 1017.8 hPa 0 mm - 980 W/m² -
1788549334 26.11° C 46% 1017.7 hPa 0 mm - 979 W/m² -
1788549030 25° C 47% 1017.7 hPa 0 mm - 972 W/m² -
1788548725 25.56° C 48% 1017.9 hPa 0 mm - 972 W/m² -
1788548421 25.56° C 48% 1018 hPa 0 mm - 965 W/m² -
1788548118 25.56° C 48% 1017.9 hPa 0 mm - 963 W/m² -
1788547813 25.56° C 43% 1017.9 hPa 0 mm - 955 W/m² -
1788547513 25° C 44% 1017.9 hPa 0 mm - 950 W/m² -
1788547208 25.56° C 43% 1018.1 hPa 0 mm - 944 W/m² -
1788546902 24.44° C 44% 1017.9 hPa 0 mm - 939 W/m² -
1788546592 25° C 45% 1018 hPa 0 mm - 933 W/m² -
1788546287 25.56° C 44% 1017.9 hPa 0 mm - 922 W/m² -
1788545982 25° C 45% 1018.2 hPa 0 mm - 914 W/m² -

* Rain latest hour (hover to see other rain measurements)
** Current wind speed in m/s (hover to see current wind gust speed)